W8SZ Weather Reports


Display with metric or nautical units.
time (UTC)temp
F
wind
direction
speed
MPH
gust
MPH
rain 1hr
in
rain 24hr
in
rain mn
in
humidity
%
barometer
mb
20170924140333 70 288 1.0 0.0 0.00 0.00 0.01 97 1019.4
20170924135845 69 288 4.0 0.0 0.00 0.00 0.01 98 1019.1
20170924135325 69 290 2.0 0.0 0.00 0.00 0.01 99 1019.5
20170924134836 69 294 3.0 0.0 0.00 0.00 0.01 98 1019.7
20170924134326 69 294 3.0 0.0 0.00 0.00 0.01 99 1019.3
20170924133836 69 294 1.0 0.0 0.00 0.00 0.01 100 1019.4
20170924133347 69 295 4.0 0.0 0.00 0.00 0.01 100 1019.5
20170924132827 68 301 4.0 0.0 0.00 0.00 0.01 100 1020.0
20170924132336 68 315 3.0 0.0 0.00 0.00 0.01 100 1019.5
20170924131826 68 317 0.0 0.0 0.00 0.00 0.01 100 1019.7
20170924131337 68 317 1.0 0.0 0.00 0.00 0.01 100 1019.7
20170924130829 67 320 2.0 0.0 0.00 0.00 0.01 100 1019.2
20170924130341 67 320 2.0 0.0 0.00 0.00 0.01 100 1019.6
20170924125824 66 320 2.0 0.0 0.00 0.00 0.01 100 1019.6
20170924125333 66 320 4.0 0.0 0.00 0.00 0.01 100 1019.7
20170924124825 65 320 0.0 0.0 0.00 0.00 0.01 100 1019.5
20170924124337 65 320 1.0 0.0 0.00 0.00 0.01 100 1019.4
20170924123826 65 320 0.0 0.0 0.00 0.00 0.01 100 1020.0
20170924123336 64 320 0.0 0.0 0.00 0.00 0.01 100 1019.5
20170924122848 64 320 0.0 0.0 0.00 0.00 0.01 100 1019.5
20170924122328 64 320 0.0 0.0 0.00 0.00 0.01 100 1019.6
20170924121819 63 320 0.0 0.0 0.00 0.00 0.01 100 1019.2
20170924121326 63 320 0.0 0.0 0.00 0.00 0.01 100 1019.3
20170924120817 63 320 0.0 0.0 0.00 0.00 0.01 100 1019.6
20170924120338 63 320 0.0 0.0 0.00 0.00 0.01 100 1020.1
20170924115848 63 320 0.0 0.0 0.00 0.00 0.01 100 1019.0
20170924115326 63 320 0.0 0.0 0.00 0.00 0.00 100 1019.7
20170924114817 63 320 2.0 0.0 0.00 0.00 0.00 100 1019.4
20170924114325 63 320 2.0 0.0 0.00 0.00 0.00 100 1019.9
20170924113836 63 320 1.0 0.0 0.00 0.00 0.00 100 1019.2
20170924113347 63 320 1.0 2.0 0.00 0.00 0.00 100 1019.4
20170924112825 63 320 1.0 2.0 0.00 0.00 0.00 100 1019.2
20170924112334 63 320 0.0 2.0 0.00 0.00 0.00 100 1019.6
20170924111824 63 320 2.0 3.0 0.00 0.00 0.00 100 1018.9
20170924111332 63 320 1.0 3.0 0.00 0.00 0.00 100 1019.0
20170924110841 63 320 2.0 3.0 0.00 0.00 0.00 100 1019.2
20170924110350 63 320 0.0 0.0 0.00 0.00 0.00 100 1019.1
20170924105829 63 320 0.0 0.0 0.00 0.00 0.00 100 1018.7
20170924105341 63 320 0.0 1.0 0.00 0.00 0.00 100 1019.3
20170924104830 63 320 0.0 3.0 0.00 0.00 0.00 100 1019.0
20170924104338 64 320 1.0 4.0 0.00 0.00 0.00 100 1018.7
20170924103826 64 320 2.0 4.0 0.00 0.00 0.00 100 1018.9
20170924103334 64 320 2.0 3.0 0.00 0.00 0.00 100 1018.8
20170924102841 64 320 1.0 2.0 0.00 0.00 0.00 100 1019.5
20170924102339 64 320 0.0 1.0 0.00 0.00 0.00 100 1018.7
20170924101828 64 320 0.0 1.0 0.00 0.00 0.00 100 1018.9
20170924101337 64 320 1.0 2.0 0.00 0.00 0.00 100 1019.0
20170924100827 64 320 1.0 2.0 0.00 0.00 0.00 100 1018.4
20170924100336 64 320 0.0 2.0 0.00 0.00 0.00 100 1018.7
20170924095846 64 320 0.0 1.0 0.00 0.00 0.00 100 1018.6
20170924095325 65 320 0.0 1.0 0.00 0.00 0.00 100 1018.6
20170924094834 65 320 0.0 0.0 0.00 0.00 0.00 100 1019.0
20170924094324 65 320 0.0 0.0 0.00 0.00 0.00 100 1018.8
20170924093834 65 320 0.0 0.0 0.00 0.00 0.00 100 1018.8
20170924093334 65 320 0.0 0.0 0.00 0.00 0.00 100 1018.7
20170924092826 65 320 0.0 0.0 0.00 0.00 0.00 100 1018.8
20170924092335 65 320 0.0 0.0 0.00 0.00 0.00 100 1018.7
20170924091826 65 320 0.0 1.0 0.00 0.00 0.00 100 1019.0
20170924091335 66 320 0.0 1.0 0.00 0.00 0.00 100 1018.7
20170924090823 66 320 0.0 0.0 0.00 0.00 0.00 100 1018.7
20170924090352 66 320 0.0 0.0 0.00 0.00 0.00 100 1018.8
20170924085830 66 320 0.0 0.0 0.00 0.00 0.00 100 1018.4
20170924085333 66 320 0.0 0.0 0.00 0.00 0.00 100 1018.5
20170924084840 66 320 0.0 0.0 0.00 0.00 0.00 100 1018.8
20170924084327 66 320 0.0 0.0 0.00 0.00 0.00 100 1018.6
20170924083837 66 320 0.0 4.0 0.00 0.00 0.00 100 1018.9
20170924083346 66 320 1.0 4.0 0.00 0.00 0.00 100 1018.6
20170924082826 66 320 0.0 2.0 0.00 0.00 0.00 100 1018.8
20170924082332 66 320 0.0 1.0 0.00 0.00 0.00 100 1018.9
20170924081841 66 320 0.0 4.0 0.00 0.00 0.00 100 1018.7
20170924081329 66 320 0.0 4.0 0.00 0.00 0.00 100 1018.6
20170924080838 66 320 0.0 4.0 0.00 0.00 0.00 100 1018.3
20170924080347 66 320 0.0 2.0 0.00 0.00 0.00 100 1018.6
20170924075823 67 320 0.0 2.0 0.00 0.00 0.00 100 1018.7
20170924075331 66 263 1.0 4.0 0.00 0.00 0.00 100 1018.4
20170924074840 67 263 1.0 4.0 0.00 0.00 0.00 100 1018.6
20170924074328 67 263 0.0 3.0 0.00 0.00 0.00 100 1018.2
20170924073835 67 263 1.0 3.0 0.00 0.00 0.00 100 1018.0
20170924073342 67 263 0.0 5.0 0.00 0.00 0.00 100 1018.3
20170924072851 67 263 1.0 5.0 0.00 0.00 0.00 100 1018.2
20170924072328 67 263 2.0 6.0 0.00 0.00 0.00 100 1018.3
20170924071832 67 263 1.0 6.0 0.00 0.00 0.00 100 1018.1
20170924071320 67 263 0.0 5.0 0.00 0.00 0.00 100 1018.0
20170924070832 67 263 0.0 7.0 0.00 0.00 0.00 100 1018.2
20170924070339 67 263 3.0 7.0 0.00 0.00 0.00 100 1018.4
20170924065847 67 265 3.0 6.0 0.00 0.00 0.00 100 1018.2
20170924065324 67 265 2.0 5.0 0.00 0.00 0.00 100 1018.0
20170924064833 67 265 0.0 2.0 0.00 0.00 0.00 100 1018.1
20170924064341 67 265 0.0 5.0 0.00 0.00 0.00 100 1018.2
20170924063831 67 265 0.0 6.0 0.00 0.00 0.00 100 1018.0
20170924063340 67 265 2.0 6.0 0.00 0.00 0.00 100 1018.1
20170924062849 67 271 0.0 3.0 0.00 0.00 0.00 100 1018.1
20170924062324 67 271 1.0 3.0 0.00 0.00 0.00 100 1018.3
20170924061834 67 271 1.0 3.0 0.00 0.00 0.00 100 1018.1
20170924061323 67 271 1.0 3.0 0.00 0.00 0.00 100 1018.1
20170924060832 67 271 0.0 4.0 0.00 0.00 0.00 100 1017.8
20170924060322 67 271 2.0 4.0 0.00 0.00 0.00 100 1018.1
20170924055852 67 271 1.0 3.0 0.00 0.00 0.00 100 1018.0
20170924055329 67 271 0.0 3.0 0.00 0.00 0.00 100 1017.9
20170924054836 67 271 1.0 4.0 0.00 0.00 0.00 100 1018.1
20170924054326 67 271 2.0 4.0 0.00 0.00 0.00 100 1018.0
20170924053828 67 271 0.0 3.0 0.00 0.00 0.00 100 1017.8
20170924053337 67 271 0.0 3.0 0.00 0.00 0.00 100 1018.0
20170924052837 67 271 1.0 4.0 0.00 0.00 0.00 100 1017.9
20170924052325 67 271 0.0 4.0 0.00 0.00 0.00 100 1017.4
20170924051832 67 271 1.0 3.0 0.00 0.00 0.00 100 1017.8
20170924051339 68 271 0.0 3.0 0.00 0.00 0.00 100 1017.7
20170924050827 68 271 0.0 3.0 0.00 0.00 0.00 100 1017.7
20170924050335 68 271 0.0 3.0 0.00 0.00 0.00 100 1017.7
20170924045832 68 271 1.0 3.0 0.00 0.00 0.00 100 1018.3
20170924045340 68 271 1.0 3.0 0.00 0.00 0.00 100 1017.9
20170924044829 68 271 0.0 6.0 0.00 0.00 0.00 100 1017.7
20170924044339 68 271 2.0 6.0 0.00 0.00 0.00 100 1017.5
20170924043829 68 268 0.0 3.0 0.00 0.00 0.00 100 1017.6
20170924043338 68 268 1.0 4.0 0.00 0.00 0.00 100 1018.0
20170924042851 68 268 0.0 4.0 0.00 0.00 0.00 100 1017.8
20170924042328 68 268 1.0 4.0 0.00 0.00 0.00 100 1018.0
20170924041838 68 268 1.0 4.0 0.00 0.00 0.00 100 1017.4
20170924041327 68 268 0.0 4.0 0.00 0.00 0.00 100 1017.4
20170924040836 67 268 1.0 5.0 0.00 0.00 0.00 100 1017.9
20170924040340 67 269 1.0 5.0 0.00 0.00 0.00 100 1017.5
20170924035839 67 268 0.0 5.0 0.00 0.00 0.00 100 1017.7
20170924035326 67 269 1.0 5.0 0.00 0.00 0.00 100 1017.7
20170924034832 67 269 0.0 5.0 0.00 0.00 0.00 100 1017.7
20170924034341 67 269 0.0 5.0 0.00 0.00 0.00 100 1017.9
20170924033830 67 269 0.0 3.0 0.00 0.00 0.00 100 1017.9
20170924033340 67 269 0.0 3.0 0.00 0.00 0.00 100 1017.7
20170924032839 67 269 1.0 3.0 0.00 0.00 0.00 100 1017.9
20170924032324 67 269 0.0 1.0 0.00 0.00 0.00 100 1017.8
20170924031832 67 269 0.0 1.0 0.00 0.00 0.00 100 1017.7
20170924031341 67 269 0.0 3.0 0.00 0.00 0.00 100 1017.7
20170924030829 67 269 0.0 3.0 0.00 0.00 0.00 100 1017.7
20170924030339 67 269 1.0 3.0 0.00 0.00 0.00 100 1017.6
20170924025837 67 269 1.0 2.0 0.00 0.00 0.00 100 1017.7
20170924025325 67 269 0.0 2.0 0.00 0.00 0.00 100 1017.8
20170924024831 67 269 0.0 2.0 0.00 0.01 0.00 100 1017.7
20170924024338 67 269 0.0 3.0 0.00 0.01 0.00 100 1017.9
20170924023847 67 269 1.0 3.0 0.00 0.01 0.00 100 1017.9
20170924023324 67 269 0.0 2.0 0.00 0.01 0.00 100 1017.9
20170924022831 67 269 0.0 3.0 0.00 0.01 0.00 100 1017.9
20170924022341 68 269 1.0 4.0 0.00 0.01 0.00 100 1017.5
20170924021826 68 268 2.0 6.0 0.00 0.01 0.00 100 1018.0
20170924021335 68 268 3.0 6.0 0.00 0.01 0.00 100 1017.4
20170924020823 68 266 3.0 5.0 0.00 0.01 0.00 100 1017.8
20170924020350 68 266 2.0 3.0 0.00 0.01 0.00 100 1017.9
20170924015831 68 266 1.0 2.0 0.00 0.01 0.00 100 1017.8
20170924015338 68 266 0.0 0.0 0.00 0.01 0.00 100 1017.5
20170924014830 68 266 0.0 0.0 0.00 0.01 0.00 100 1017.4
20170924014337 68 266 0.0 0.0 0.00 0.01 0.00 100 1017.3
20170924013831 68 266 0.0 0.0 0.00 0.01 0.00 100 1017.6
20170924013341 68 266 0.0 0.0 0.00 0.01 0.00 100 1017.3
20170924012851 69 266 0.0 0.0 0.00 0.01 0.00 100 1017.5
20170924012328 69 266 0.0 0.0 0.00 0.01 0.00 100 1017.3
20170924011836 69 266 0.0 0.0 0.00 0.01 0.00 100 1017.4
20170924011324 69 266 0.0 3.0 0.00 0.01 0.00 100 1017.1
20170924010833 69 266 0.0 3.0 0.00 0.01 0.00 100 1017.3
20170924010340 69 266 0.0 3.0 0.00 0.01 0.00 100 1017.4
20170924005849 69 266 0.0 2.0 0.00 0.01 0.00 100 1017.4
20170924005324 70 266 0.0 2.0 0.00 0.01 0.00 100 1017.2
20170924004830 70 266 0.0 3.0 0.00 0.23 0.00 100 1017.5
20170924004341 70 266 1.0 4.0 0.00 0.23 0.00 100 1017.2
20170924003829 70 266 1.0 4.0 0.00 0.23 0.00 100 1017.1
20170924003339 70 266 2.0 5.0 0.00 0.23 0.00 100 1017.3
20170924002848 70 266 3.0 5.0 0.00 0.23 0.00 100 1017.4
20170924002324 70 266 2.0 5.0 0.00 0.23 0.00 100 1017.0
20170924001833 70 235 2.0 5.0 0.00 0.23 0.00 100 1017.3
20170924001341 70 213 3.0 5.0 0.00 0.23 0.00 100 1017.1
20170924000829 70 206 3.0 8.0 0.00 0.23 0.00 100 1017.2
20170924000354 70 206 4.0 10.0 0.00 0.23 0.00 100 1017.5
20170923235828 70 218 4.0 10.0 0.00 0.23 0.00 100 1017.3
20170923235333 70 235 2.0 6.0 0.00 0.23 0.00 100 1017.0
20170923234840 71 238 3.0 6.0 0.00 0.28 0.00 100 1017.7
20170923234329 71 238 3.0 6.0 0.00 0.28 0.00 100 1017.0
20170923233842 71 229 2.0 5.0 0.00 0.28 0.00 100 1017.0
20170923233351 71 229 2.0 5.0 0.00 0.28 0.00 100 1016.9
20170923232829 71 229 2.0 4.0 0.00 0.28 0.00 100 1017.2
20170923232338 71 229 2.0 4.0 0.00 0.28 0.00 100 1017.0
20170923231824 71 229 0.0 5.0 0.00 0.28 0.00 100 1017.5
20170923231327 72 229 3.0 8.0 0.00 0.28 0.00 100 1017.4
20170923230834 72 230 4.0 8.0 0.00 0.28 0.00 100 1016.8
20170923230343 72 223 2.0 6.0 0.00 0.28 0.00 100 1016.8
20170923225849 72 223 3.0 7.0 0.00 0.28 0.00 100 1016.9
20170923225325 72 224 3.0 8.0 0.00 0.28 0.00 100 1017.0
20170923224833 72 218 4.0 8.0 0.00 0.28 0.00 100 1017.0
20170923224341 72 229 3.0 7.0 0.00 0.28 0.00 100 1017.5
20170923223829 72 229 3.0 7.0 0.00 0.28 0.00 100 1017.2
20170923223342 72 214 3.0 7.0 0.00 0.28 0.00 100 1017.0
20170923222838 72 217 4.0 6.0 0.00 0.28 0.00 100 1016.8
20170923222327 72 220 4.0 7.0 0.00 0.28 0.00 100 1017.0
20170923221834 73 226 4.0 8.0 0.00 0.28 0.00 99 1017.4
20170923221323 73 239 4.0 8.0 0.00 0.28 0.00 99 1017.1
20170923220830 73 229 4.0 8.0 0.00 0.28 0.00 99 1017.1
20170923220339 73 244 4.0 8.0 0.00 0.28 0.00 99 1017.0
20170923215836 73 205 3.0 6.0 0.00 0.28 0.00 98 1016.8
20170923215340 74 210 4.0 7.0 0.00 0.28 0.00 97 1016.7
20170923214828 74 211 4.0 7.0 0.00 0.28 0.00 98 1017.2
20170923214330 74 210 4.0 6.0 0.00 0.28 0.00 97 1016.6
20170923213838 74 207 4.0 6.0 0.00 0.28 0.00 97 1016.7
20170923213325 74 219 3.0 8.0 0.00 0.28 0.00 97 1017.2
20170923212853 74 211 5.0 8.0 0.00 0.28 0.00 97 1017.3
20170923212330 74 221 5.0 9.0 0.00 0.28 0.00 97 1016.9
20170923211837 74 211 3.0 9.0 0.00 0.28 0.00 97 1016.9
20170923211324 74 221 4.0 9.0 0.00 0.28 0.00 97 1017.1
20170923210831 74 212 3.0 9.0 0.00 0.28 0.00 96 1016.8
20170923210340 75 235 4.0 9.0 0.00 0.28 0.00 96 1016.7
20170923205842 75 207 5.0 9.0 0.00 0.28 0.00 95 1017.2
20170923205328 75 216 6.0 9.0 0.00 0.28 0.00 95 1016.8
20170923204835 75 205 5.0 10.0 0.00 0.28 0.00 95 1017.1
20170923204324 75 211 6.0 10.0 0.00 0.28 0.00 95 1016.9
20170923203830 75 188 4.0 7.0 0.00 0.28 0.00 95 1017.4
20170923203341 75 206 3.0 7.0 0.00 0.28 0.00 95 1017.0
20170923202838 75 220 3.0 6.0 0.00 0.28 0.00 96 1017.1
20170923202328 75 190 3.0 5.0 0.00 0.28 0.00 96 1017.4
20170923201841 75 205 3.0 6.0 0.00 0.28 0.00 96 1017.0
20170923201326 75 199 3.0 6.0 0.00 0.28 0.00 95 1017.0
20170923200849 75 204 4.0 6.0 0.00 0.28 0.00 96 1017.2
20170923200326 75 186 3.0 7.0 0.00 0.28 0.00 96 1017.9
20170923195834 75 185 4.0 7.0 0.00 0.28 0.00 96 1017.5
20170923195340 75 182 5.0 9.0 0.00 0.28 0.00 96 1017.5
20170923194827 75 221 5.0 9.0 0.00 0.28 0.00 96 1017.5
20170923194334 74 216 5.0 6.0 0.00 0.28 0.00 97 1017.3
20170923193840 74 209 3.0 5.0 0.00 0.28 0.00 97 1018.0
20170923193326 74 202 3.0 7.0 0.00 0.28 0.00 97 1017.7
20170923192851 74 207 4.0 8.0 0.00 0.28 0.00 97 1017.4
20170923192327 74 205 5.0 9.0 0.00 0.28 0.00 97 1017.4
20170923191832 74 216 6.0 9.0 0.00 0.28 0.00 97 1017.6
20170923191338 74 201 5.0 10.0 0.00 0.28 0.00 97 1018.4
20170923190826 74 215 6.0 10.0 0.00 0.28 0.00 97 1017.8
20170923190339 74 210 6.0 9.0 0.00 0.28 0.00 98 1017.7
20170923185833 73 208 5.0 10.0 0.00 0.28 0.00 98 1017.3
20170923185337 73 204 5.0 10.0 0.00 0.28 0.00 99 1018.2
20170923184839 73 204 6.0 10.0 0.00 0.28 0.00 99 1018.0
20170923184324 73 197 6.0 10.0 0.00 0.28 0.00 99 1017.7
20170923183831 73 216 7.0 10.0 0.00 0.28 0.00 99 1017.9
20170923183339 73 191 5.0 9.0 0.00 0.28 0.00 100 1018.0
20170923182832 73 228 6.0 11.0 0.00 0.28 0.00 99 1017.9
20170923182340 73 214 8.0 11.0 0.00 0.28 0.00 100 1017.9
20170923181829 73 210 6.0 10.0 0.00 0.28 0.00 100 1017.9
20170923181336 73 192 3.0 7.0 0.00 0.28 0.00 100 1017.9
20170923180824 73 195 4.0 7.0 0.00 0.28 0.00 100 1018.0
20170923180333 73 192 5.0 6.0 0.00 0.28 0.00 100 1018.3
20170923175831 73 211 4.0 7.0 0.00 0.28 0.00 100 1018.5
20170923175336 73 211 3.0 7.0 0.00 0.28 0.00 100 1018.6
20170923174841 73 217 3.0 8.0 0.00 0.28 0.00 100 1018.4
20170923174330 73 187 3.0 8.0 0.00 0.28 0.00 100 1018.4
20170923173840 73 212 3.0 5.0 0.00 0.28 0.00 100 1018.7
20170923173348 73 212 3.0 6.0 0.00 0.28 0.00 100 1018.3
20170923172843 73 212 4.0 6.0 0.00 0.28 0.00 100 1018.5
20170923172329 72 212 3.0 7.0 0.00 0.28 0.00 100 1018.8
20170923171832 72 211 4.0 7.0 0.00 0.28 0.00 100 1018.3
20170923171339 72 216 4.0 7.0 0.00 0.28 0.00 100 1018.6
20170923170836 72 219 3.0 6.0 0.00 0.28 0.00 100 1018.3
20170923170328 72 220 4.0 6.0 0.00 0.28 0.00 100 1018.7
20170923165839 72 221 4.0 7.0 0.00 0.28 0.00 100 1019.0
20170923165327 72 224 3.0 7.0 0.00 0.28 0.00 100 1018.4
20170923164833 72 226 4.0 8.0 0.00 0.28 0.00 100 1018.8
20170923164341 72 226 4.0 8.0 0.00 0.28 0.00 100 1018.5
20170923163829 72 214 4.0 8.0 0.00 0.28 0.00 100 1018.7
20170923163338 72 214 4.0 8.0 0.00 0.28 0.00 100 1018.7
20170923162835 72 214 4.0 8.0 0.00 0.28 0.00 100 1018.7
20170923162323 72 222 5.0 8.0 0.00 0.28 0.00 100 1019.3
20170923161830 72 219 5.0 8.0 0.00 0.28 0.00 100 1018.9
20170923161340 72 271 4.0 8.0 0.00 0.28 0.00 100 1019.4
20170923160830 72 287 4.0 8.0 0.00 0.28 0.00 100 1018.9
20170923160340 72 288 4.0 8.0 0.00 0.28 0.00 100 1019.4
20170923155838 72 289 4.0 7.0 0.00 0.28 0.00 100 1018.4
20170923155325 71 289 3.0 7.0 0.00 0.28 0.00 100 1018.4
20170923154834 71 289 4.0 7.0 0.00 0.28 0.00 100 1019.2
20170923154321 71 289 3.0 6.0 0.00 0.28 0.00 100 1018.5
20170923153831 71 289 3.0 6.0 0.00 0.28 0.00 100 1018.4
20170923153340 71 289 4.0 6.0 0.00 0.28 0.00 100 1018.7
20170923152820 71 289 3.0 5.0 0.00 0.28 0.00 100 1018.8
20170923152333 71 289 3.0 6.0 0.00 0.28 0.00 100 1018.2
20170923151821 71 289 3.0 6.0 0.00 0.28 0.00 100 1018.6
20170923151331 71 289 3.0 5.0 0.00 0.28 0.00 100 1018.7
20170923150840 71 289 3.0 6.0 0.00 0.28 0.00 100 1018.4
20170923150332 71 289 3.0 6.0 0.00 0.28 0.00 100 1018.6
20170923145832 71 289 2.0 5.0 0.00 0.28 0.00 100 1018.6
20170923145321 71 289 3.0 5.0 0.00 0.28 0.00 100 1018.3
20170923144830 71 289 3.0 5.0 0.00 0.28 0.00 100 1018.6
20170923144321 70 289 3.0 6.0 0.00 0.28 0.00 100 1018.5
20170923143830 70 289 3.0 6.0 0.00 0.28 0.00 100 1018.5
20170923143339 70 289 3.0 7.0 0.00 0.28 0.00 100 1018.5
20170923142849 70 289 3.0 7.0 0.00 0.28 0.00 100 1018.6
20170923142327 70 289 4.0 7.0 0.00 0.28 0.00 100 1018.4
20170923141836 70 289 4.0 7.0 0.00 0.28 0.00 100 1018.4
20170923141323 69 291 3.0 6.0 0.00 0.28 0.00 100 1018.4
20170923140836 69 292 3.0 6.0 0.00 0.28 0.00 100 1018.2